Year,Month,Day,Hour,Minute,Value (Times are PST for temperature in C)
2016,05,27,00,00,10.40
2016,05,27,00,01,10.40
2016,05,27,00,02,10.30
2016,05,27,00,03,10.30
2016,05,27,00,04,10.30
2016,05,27,00,05,10.30
2016,05,27,00,06,10.30
2016,05,27,00,07,10.30
2016,05,27,00,08,10.30
2016,05,27,00,09,10.30
2016,05,27,00,10,10.20
2016,05,27,00,11,10.20
2016,05,27,00,12,10.20
2016,05,27,00,13,10.20
2016,05,27,00,14,10.20
2016,05,27,00,15,10.20
2016,05,27,00,16,10.20
2016,05,27,00,17,10.10
2016,05,27,00,18,10.10
2016,05,27,00,19,10.10
2016,05,27,00,20,10.10
2016,05,27,00,21,10.10
2016,05,27,00,22,10.10
2016,05,27,00,23,10.00
2016,05,27,00,24,10.00
2016,05,27,00,25,10.00
2016,05,27,00,26,10.00
2016,05,27,00,27,9.90
2016,05,27,00,28,9.90
2016,05,27,00,29,9.90
2016,05,27,00,30,9.90
2016,05,27,00,31,9.90
2016,05,27,00,32,9.80
2016,05,27,00,33,9.80
2016,05,27,00,34,9.80
2016,05,27,00,35,9.80
2016,05,27,00,36,9.80
2016,05,27,00,37,9.80
2016,05,27,00,38,9.80
2016,05,27,00,39,9.80
2016,05,27,00,40,9.80
2016,05,27,00,41,9.80
2016,05,27,00,42,9.70
2016,05,27,00,43,9.70
2016,05,27,00,44,9.70
2016,05,27,00,45,9.70
2016,05,27,00,46,9.70
2016,05,27,00,47,9.70
2016,05,27,00,48,9.70
2016,05,27,00,49,9.60
2016,05,27,00,50,9.60
2016,05,27,00,51,9.60
2016,05,27,00,52,9.50
2016,05,27,00,53,9.50
2016,05,27,00,54,9.50
2016,05,27,00,55,9.40
2016,05,27,00,56,9.40
2016,05,27,00,57,9.30
2016,05,27,00,58,9.30
2016,05,27,00,59,9.30
2016,05,27,01,00,9.20
2016,05,27,01,01,9.20
2016,05,27,01,02,9.20
2016,05,27,01,03,9.10
2016,05,27,01,04,9.10
2016,05,27,01,05,9.10
2016,05,27,01,06,9.10
2016,05,27,01,07,9.10
2016,05,27,01,08,9.10
2016,05,27,01,09,9.00
2016,05,27,01,10,9.00
2016,05,27,01,11,8.90
2016,05,27,01,12,8.90
2016,05,27,01,13,8.90
2016,05,27,01,14,8.80
2016,05,27,01,15,8.80
2016,05,27,01,16,8.70
2016,05,27,01,17,8.70
2016,05,27,01,18,8.70
2016,05,27,01,19,8.60
2016,05,27,01,20,8.60
2016,05,27,01,21,8.60
2016,05,27,01,22,8.50
2016,05,27,01,23,8.40
2016,05,27,01,24,8.40
2016,05,27,01,25,8.40
2016,05,27,01,26,8.30
2016,05,27,01,27,8.30
2016,05,27,01,28,8.30
2016,05,27,01,29,8.30
2016,05,27,01,30,8.20
2016,05,27,01,31,8.20
2016,05,27,01,32,8.20
2016,05,27,01,33,8.10
2016,05,27,01,34,8.10
2016,05,27,01,35,8.10
2016,05,27,01,36,8.00
2016,05,27,01,37,8.00
2016,05,27,01,38,8.00
2016,05,27,01,39,7.90
2016,05,27,01,40,7.90
2016,05,27,01,41,7.90
2016,05,27,01,42,7.80
2016,05,27,01,43,7.80
2016,05,27,01,44,7.80
2016,05,27,01,45,7.70
2016,05,27,01,46,7.70
2016,05,27,01,47,7.70
2016,05,27,01,48,7.70
2016,05,27,01,49,7.60
2016,05,27,01,50,7.60
2016,05,27,01,51,7.50
2016,05,27,01,52,7.50
2016,05,27,01,53,7.50
2016,05,27,01,54,7.40
2016,05,27,01,55,7.40
2016,05,27,01,56,7.40
2016,05,27,01,57,7.30
2016,05,27,01,58,7.30
2016,05,27,01,59,7.30
2016,05,27,02,00,7.30
2016,05,27,02,01,7.20
2016,05,27,02,02,7.20
2016,05,27,02,03,7.20
2016,05,27,02,04,7.20
2016,05,27,02,05,7.10
2016,05,27,02,06,7.10
2016,05,27,02,07,7.10
2016,05,27,02,08,7.10
2016,05,27,02,09,7.10
2016,05,27,02,10,7.00
2016,05,27,02,11,7.00
2016,05,27,02,12,7.00
2016,05,27,02,13,7.00
2016,05,27,02,14,6.90
2016,05,27,02,15,6.90
2016,05,27,02,16,6.90
2016,05,27,02,17,6.90
2016,05,27,02,18,6.90
2016,05,27,02,19,6.90
2016,05,27,02,20,6.90
2016,05,27,02,21,6.90
2016,05,27,02,22,6.90
2016,05,27,02,23,6.80
2016,05,27,02,24,6.80
2016,05,27,02,25,6.80
2016,05,27,02,26,6.80
2016,05,27,02,27,6.80
2016,05,27,02,28,6.80
2016,05,27,02,29,6.80
2016,05,27,02,30,6.80
2016,05,27,02,31,6.70
2016,05,27,02,32,6.70
2016,05,27,02,33,6.70
2016,05,27,02,34,6.70
2016,05,27,02,35,6.60
2016,05,27,02,36,6.60
2016,05,27,02,37,6.60
2016,05,27,02,38,6.50
2016,05,27,02,39,6.50
2016,05,27,02,40,6.50
2016,05,27,02,41,6.40
2016,05,27,02,42,6.40
2016,05,27,02,43,6.40
2016,05,27,02,44,6.40
2016,05,27,02,45,6.40
2016,05,27,02,46,6.30
2016,05,27,02,47,6.30
2016,05,27,02,48,6.30
2016,05,27,02,49,6.30
2016,05,27,02,50,6.30
2016,05,27,02,51,6.30
2016,05,27,02,52,6.30
2016,05,27,02,53,6.30
2016,05,27,02,54,6.30
2016,05,27,02,55,6.20
2016,05,27,02,56,6.20
2016,05,27,02,57,6.20
2016,05,27,02,58,6.20
2016,05,27,02,59,6.20
2016,05,27,03,00,6.20
2016,05,27,03,01,6.20
2016,05,27,03,02,6.20
2016,05,27,03,03,6.20
2016,05,27,03,04,6.20
2016,05,27,03,05,6.10
2016,05,27,03,06,6.10
2016,05,27,03,07,6.10
2016,05,27,03,08,6.10
2016,05,27,03,09,6.10
2016,05,27,03,10,6.10
2016,05,27,03,11,6.10
2016,05,27,03,12,6.10
2016,05,27,03,13,6.10
2016,05,27,03,14,6.10
2016,05,27,03,15,6.10
2016,05,27,03,16,6.10
2016,05,27,03,17,6.10
2016,05,27,03,18,6.00
2016,05,27,03,19,6.00
2016,05,27,03,20,6.00
2016,05,27,03,21,6.00
2016,05,27,03,22,5.90
2016,05,27,03,23,5.90
2016,05,27,03,24,5.90
2016,05,27,03,25,5.90
2016,05,27,03,26,5.90
2016,05,27,03,27,5.80
2016,05,27,03,28,5.80
2016,05,27,03,29,5.80
2016,05,27,03,30,5.80
2016,05,27,03,31,5.80
2016,05,27,03,32,5.80
2016,05,27,03,33,5.80
2016,05,27,03,34,5.80
2016,05,27,03,35,5.80
2016,05,27,03,36,5.80
2016,05,27,03,37,5.80
2016,05,27,03,38,5.80
2016,05,27,03,39,5.80
2016,05,27,03,40,5.80
2016,05,27,03,41,5.80
2016,05,27,03,42,5.80
2016,05,27,03,43,5.80
2016,05,27,03,44,5.80
2016,05,27,03,45,5.80
2016,05,27,03,46,5.80
2016,05,27,03,47,5.80
2016,05,27,03,48,5.80
2016,05,27,03,49,5.70
2016,05,27,03,50,5.70
2016,05,27,03,51,5.70
2016,05,27,03,52,5.70
2016,05,27,03,53,5.70
2016,05,27,03,54,5.60
2016,05,27,03,55,5.60
2016,05,27,03,56,5.60
2016,05,27,03,57,5.60
2016,05,27,03,58,5.60
2016,05,27,03,59,5.60
2016,05,27,04,00,5.50
2016,05,27,04,01,5.50
2016,05,27,04,02,5.50
2016,05,27,04,03,5.50
2016,05,27,04,04,5.50
2016,05,27,04,05,5.40
2016,05,27,04,06,5.40
2016,05,27,04,07,5.40
2016,05,27,04,08,5.40
2016,05,27,04,09,5.40
2016,05,27,04,10,5.40
2016,05,27,04,11,5.40
2016,05,27,04,12,5.40
2016,05,27,04,13,5.40
2016,05,27,04,14,5.40
2016,05,27,04,15,5.40
2016,05,27,04,16,5.40
2016,05,27,04,17,5.40
2016,05,27,04,18,5.30
2016,05,27,04,19,5.30
2016,05,27,04,20,5.30
2016,05,27,04,21,5.30
2016,05,27,04,22,5.30
2016,05,27,04,23,5.30
2016,05,27,04,24,5.30
2016,05,27,04,25,5.30
2016,05,27,04,26,5.30
2016,05,27,04,27,5.20
2016,05,27,04,28,5.20
2016,05,27,04,29,5.20
2016,05,27,04,30,5.20
2016,05,27,04,31,5.20
2016,05,27,04,32,5.20
2016,05,27,04,33,5.20
2016,05,27,04,34,5.10
2016,05,27,04,35,5.10
2016,05,27,04,36,5.10
2016,05,27,04,37,5.10
2016,05,27,04,38,5.10
2016,05,27,04,39,5.10
2016,05,27,04,40,5.10
2016,05,27,04,41,5.00
2016,05,27,04,42,5.00
2016,05,27,04,43,5.00
2016,05,27,04,44,5.00
2016,05,27,04,45,5.00
2016,05,27,04,46,5.00
2016,05,27,04,47,5.00
2016,05,27,04,48,5.00
2016,05,27,04,49,5.00
2016,05,27,04,50,5.00
2016,05,27,04,51,5.00
2016,05,27,04,52,4.90
2016,05,27,04,53,4.90
2016,05,27,04,54,4.90
2016,05,27,04,55,4.90
2016,05,27,04,56,4.90
2016,05,27,04,57,4.90
2016,05,27,04,58,4.90
2016,05,27,04,59,4.90
2016,05,27,05,00,4.90
2016,05,27,05,01,4.90
2016,05,27,05,02,4.90
2016,05,27,05,03,4.90
2016,05,27,05,04,4.90
2016,05,27,05,05,4.90
2016,05,27,05,06,4.90
2016,05,27,05,07,4.90
2016,05,27,05,08,4.90
2016,05,27,05,09,4.90
2016,05,27,05,10,4.80
2016,05,27,05,11,4.80
2016,05,27,05,12,4.80
2016,05,27,05,13,4.80
2016,05,27,05,14,4.80
2016,05,27,05,15,4.80
2016,05,27,05,16,4.80
2016,05,27,05,17,4.80
2016,05,27,05,18,4.80
2016,05,27,05,19,4.70
2016,05,27,05,20,4.70
2016,05,27,05,21,4.70
2016,05,27,05,22,4.70
2016,05,27,05,23,4.70
2016,05,27,05,24,4.70
2016,05,27,05,25,4.70
2016,05,27,05,26,4.70
2016,05,27,05,27,4.70
2016,05,27,05,28,4.70
2016,05,27,05,29,4.70
2016,05,27,05,30,4.70
2016,05,27,05,31,4.70
2016,05,27,05,32,4.70
2016,05,27,05,33,4.70
2016,05,27,05,34,4.70
2016,05,27,05,35,4.70
2016,05,27,05,36,4.70
2016,05,27,05,37,4.70
2016,05,27,05,38,4.60
2016,05,27,05,39,4.60
2016,05,27,05,40,4.60
2016,05,27,05,41,4.60
2016,05,27,05,42,4.60
2016,05,27,05,43,4.60
2016,05,27,05,44,4.60
2016,05,27,05,45,4.50
2016,05,27,05,46,4.50
2016,05,27,05,47,4.50
2016,05,27,05,48,4.40
2016,05,27,05,49,4.40
2016,05,27,05,50,4.40
2016,05,27,05,51,4.30
2016,05,27,05,52,4.30
2016,05,27,05,53,4.30
2016,05,27,05,54,4.30
2016,05,27,05,55,4.30
2016,05,27,05,56,4.30
2016,05,27,05,57,4.30
2016,05,27,05,58,4.30
2016,05,27,05,59,4.30
2016,05,27,06,00,4.30
2016,05,27,06,01,4.30
2016,05,27,06,02,4.30
2016,05,27,06,03,4.30
2016,05,27,06,04,4.30
2016,05,27,06,05,4.30
2016,05,27,06,06,4.30
2016,05,27,06,07,4.30
2016,05,27,06,08,4.30
2016,05,27,06,09,4.30
2016,05,27,06,10,4.30
2016,05,27,06,11,4.30
2016,05,27,06,12,4.30
2016,05,27,06,13,4.30
2016,05,27,06,14,4.40
2016,05,27,06,15,4.40
2016,05,27,06,16,4.40
2016,05,27,06,17,4.50
2016,05,27,06,18,4.50
2016,05,27,06,19,4.50
2016,05,27,06,20,4.50
2016,05,27,06,21,4.60
2016,05,27,06,22,4.60
2016,05,27,06,23,4.60
2016,05,27,06,24,4.60
2016,05,27,06,25,4.60
2016,05,27,06,26,4.60
2016,05,27,06,27,4.60
2016,05,27,06,28,4.60
2016,05,27,06,29,4.60
2016,05,27,06,30,4.60
2016,05,27,06,31,4.70
2016,05,27,06,32,4.70
2016,05,27,06,33,4.70
2016,05,27,06,34,4.70
2016,05,27,06,35,4.80
2016,05,27,06,36,4.80
2016,05,27,06,37,4.80
2016,05,27,06,38,4.90
2016,05,27,06,39,4.90
2016,05,27,06,40,5.00
2016,05,27,06,41,5.10
2016,05,27,06,42,5.10
2016,05,27,06,43,5.20
2016,05,27,06,44,5.20
2016,05,27,06,45,5.30
2016,05,27,06,46,5.30
2016,05,27,06,47,5.40
2016,05,27,06,48,5.40
2016,05,27,06,49,5.50
2016,05,27,06,50,5.60
2016,05,27,06,51,5.70
2016,05,27,06,52,5.80
2016,05,27,06,53,5.80
2016,05,27,06,54,5.90
2016,05,27,06,55,6.00
2016,05,27,06,56,6.00
2016,05,27,06,57,6.10
2016,05,27,06,58,6.20
2016,05,27,06,59,6.30
2016,05,27,07,00,6.30
2016,05,27,07,01,6.40
2016,05,27,07,02,6.50
2016,05,27,07,03,6.60
2016,05,27,07,04,6.60
2016,05,27,07,05,6.70
2016,05,27,07,06,6.70
2016,05,27,07,07,6.80
2016,05,27,07,08,6.80
2016,05,27,07,09,6.90
2016,05,27,07,10,7.00
2016,05,27,07,11,7.10
2016,05,27,07,12,7.20
2016,05,27,07,13,7.30
2016,05,27,07,14,7.40
2016,05,27,07,15,7.50
2016,05,27,07,16,7.60
2016,05,27,07,17,7.70
2016,05,27,07,18,7.80
2016,05,27,07,19,7.90
2016,05,27,07,20,8.00
2016,05,27,07,21,8.10
2016,05,27,07,22,8.20
2016,05,27,07,23,8.30
2016,05,27,07,24,8.40
2016,05,27,07,25,8.50
2016,05,27,07,26,8.60
2016,05,27,07,27,8.70
2016,05,27,07,28,8.80
2016,05,27,07,29,8.90
2016,05,27,07,30,8.90
2016,05,27,07,31,9.00
2016,05,27,07,32,9.10
2016,05,27,07,33,9.30
2016,05,27,07,34,9.40
2016,05,27,07,35,9.50
2016,05,27,07,36,9.60
2016,05,27,07,37,9.80
2016,05,27,07,38,9.80
2016,05,27,07,39,9.90
2016,05,27,07,40,10.00
2016,05,27,07,41,10.10
2016,05,27,07,42,10.20
2016,05,27,07,43,10.30
2016,05,27,07,44,10.40
2016,05,27,07,45,10.50
2016,05,27,07,46,10.70
2016,05,27,07,47,10.80
2016,05,27,07,48,10.90
2016,05,27,07,49,11.00
2016,05,27,07,50,11.10
2016,05,27,07,51,11.20
2016,05,27,07,52,11.30
2016,05,27,07,53,11.30
2016,05,27,07,54,11.40
2016,05,27,07,55,11.40
2016,05,27,07,56,11.50
2016,05,27,07,57,11.50
2016,05,27,07,58,11.50
2016,05,27,07,59,11.50
2016,05,27,08,00,11.50
2016,05,27,08,01,11.50
2016,05,27,08,02,11.50
2016,05,27,08,03,11.60
2016,05,27,08,04,11.60
2016,05,27,08,05,11.60
2016,05,27,08,06,11.60
2016,05,27,08,07,11.60
2016,05,27,08,08,11.70
2016,05,27,08,09,11.70
2016,05,27,08,10,11.70
2016,05,27,08,11,11.70
2016,05,27,08,12,11.80
2016,05,27,08,13,11.80
2016,05,27,08,14,11.90
2016,05,27,08,15,11.90
2016,05,27,08,16,12.00
2016,05,27,08,17,12.00
2016,05,27,08,18,12.10
2016,05,27,08,19,12.20
2016,05,27,08,20,12.30
2016,05,27,08,21,12.30
2016,05,27,08,22,12.40
2016,05,27,08,23,12.40
2016,05,27,08,24,12.50
2016,05,27,08,25,12.60
2016,05,27,08,26,12.70
2016,05,27,08,27,12.70
2016,05,27,08,28,12.80
2016,05,27,08,29,12.90
2016,05,27,08,30,12.90
2016,05,27,08,31,13.00
2016,05,27,08,32,13.00
2016,05,27,08,33,13.10
2016,05,27,08,34,13.10
2016,05,27,08,35,13.10
2016,05,27,08,36,13.10
2016,05,27,08,37,13.10
2016,05,27,08,38,13.10
2016,05,27,08,39,13.20
2016,05,27,08,40,13.30
2016,05,27,08,41,13.40
2016,05,27,08,42,13.50
2016,05,27,08,43,13.60
2016,05,27,08,44,13.60
2016,05,27,08,45,13.60
2016,05,27,08,46,13.60
2016,05,27,08,47,13.60
2016,05,27,08,48,13.60
2016,05,27,08,49,13.60
2016,05,27,08,50,13.70
2016,05,27,08,51,13.70
2016,05,27,08,52,13.70
2016,05,27,08,53,13.70
2016,05,27,08,54,13.70
2016,05,27,08,55,13.70
2016,05,27,08,56,13.70
2016,05,27,08,57,13.70
2016,05,27,08,58,13.80
2016,05,27,08,59,13.80
2016,05,27,09,00,13.80
2016,05,27,09,01,13.80
2016,05,27,09,02,13.80
2016,05,27,09,03,13.70
2016,05,27,09,04,13.70
2016,05,27,09,05,13.60
2016,05,27,09,06,13.60
2016,05,27,09,07,13.60
2016,05,27,09,08,13.70
2016,05,27,09,09,13.70
2016,05,27,09,10,13.80
2016,05,27,09,11,13.80
2016,05,27,09,12,13.90
2016,05,27,09,13,13.90
2016,05,27,09,14,14.00
2016,05,27,09,15,14.10
2016,05,27,09,16,14.20
2016,05,27,09,17,14.20
2016,05,27,09,18,14.30
2016,05,27,09,19,14.40
2016,05,27,09,20,14.40
2016,05,27,09,21,14.50
2016,05,27,09,22,14.60
2016,05,27,09,23,14.70
2016,05,27,09,24,14.70
2016,05,27,09,25,14.80
2016,05,27,09,26,14.80
2016,05,27,09,27,14.80
2016,05,27,09,28,14.90
2016,05,27,09,29,14.80
2016,05,27,09,30,14.80
2016,05,27,09,31,14.80
2016,05,27,09,32,14.80
2016,05,27,09,33,14.80
2016,05,27,09,34,14.70
2016,05,27,09,35,14.60
2016,05,27,09,36,14.60
2016,05,27,09,37,14.50
2016,05,27,09,38,14.40
2016,05,27,09,39,14.40
2016,05,27,09,40,14.30
2016,05,27,09,41,14.30
2016,05,27,09,42,14.30
2016,05,27,09,43,14.40
2016,05,27,09,44,14.40
2016,05,27,09,45,14.40
2016,05,27,09,46,14.50
2016,05,27,09,47,14.50
2016,05,27,09,48,14.60
2016,05,27,09,49,14.60
2016,05,27,09,50,14.60
2016,05,27,09,51,14.60
2016,05,27,09,52,14.60
2016,05,27,09,53,14.60
2016,05,27,09,54,14.60
2016,05,27,09,55,14.60
2016,05,27,09,56,14.50
2016,05,27,09,57,14.50
2016,05,27,09,58,14.50
2016,05,27,09,59,14.50
2016,05,27,10,00,14.60
2016,05,27,10,01,14.70
2016,05,27,10,02,14.80
2016,05,27,10,03,14.80
2016,05,27,10,04,14.70
2016,05,27,10,05,14.60
2016,05,27,10,06,14.60
2016,05,27,10,07,14.60
2016,05,27,10,08,14.60
2016,05,27,10,09,14.50
2016,05,27,10,10,14.50
2016,05,27,10,11,14.50
2016,05,27,10,12,14.50
2016,05,27,10,13,14.50
2016,05,27,10,14,14.50
2016,05,27,10,15,14.50
2016,05,27,10,16,14.50
2016,05,27,10,17,14.40
2016,05,27,10,18,14.30
2016,05,27,10,19,14.20
2016,05,27,10,20,14.10
2016,05,27,10,21,14.00
2016,05,27,10,22,13.90
2016,05,27,10,23,13.90
2016,05,27,10,24,13.90
2016,05,27,10,25,13.90
2016,05,27,10,26,13.80
2016,05,27,10,27,13.80
2016,05,27,10,28,13.80
2016,05,27,10,29,13.90
2016,05,27,10,30,13.90
2016,05,27,10,31,14.00
2016,05,27,10,32,14.00
2016,05,27,10,33,14.00
2016,05,27,10,34,14.00
2016,05,27,10,35,14.00
2016,05,27,10,36,14.10
2016,05,27,10,37,14.10
2016,05,27,10,38,14.00
2016,05,27,10,39,14.00
2016,05,27,10,40,14.00
2016,05,27,10,41,14.00
2016,05,27,10,42,14.00
2016,05,27,10,43,14.00
2016,05,27,10,44,13.90
2016,05,27,10,45,13.90
2016,05,27,10,46,13.80
2016,05,27,10,47,13.80
2016,05,27,10,48,13.70
2016,05,27,10,49,13.70
2016,05,27,10,50,13.70
2016,05,27,10,51,13.70
2016,05,27,10,52,13.70
2016,05,27,10,53,13.70
2016,05,27,10,54,13.70
2016,05,27,10,55,13.70
2016,05,27,10,56,13.70
2016,05,27,13,15,14.30
2016,05,27,13,19,14.40
2016,05,27,13,20,14.40
2016,05,27,13,21,14.40
2016,05,27,13,22,14.40
2016,05,27,13,23,14.40
2016,05,27,13,24,14.30
2016,05,27,13,25,14.30
2016,05,27,13,26,14.40
2016,05,27,13,27,14.40
2016,05,27,13,28,14.50
2016,05,27,13,29,14.50
2016,05,27,13,30,14.50
2016,05,27,13,31,14.40
2016,05,27,13,32,14.40
2016,05,27,13,33,14.30
2016,05,27,13,34,14.30
2016,05,27,13,35,14.30
2016,05,27,13,36,14.30
2016,05,27,13,37,14.40
2016,05,27,13,38,14.40
2016,05,27,13,39,14.40
2016,05,27,13,40,14.40
2016,05,27,13,41,14.40
2016,05,27,13,42,14.50
2016,05,27,13,43,14.50
2016,05,27,13,44,14.50
2016,05,27,13,45,14.50
2016,05,27,13,46,14.50
2016,05,27,13,47,14.40
2016,05,27,13,48,14.40
2016,05,27,13,49,14.50
2016,05,27,13,50,14.50
2016,05,27,13,51,14.60
2016,05,27,13,52,14.60
2016,05,27,13,53,14.50
2016,05,27,13,54,14.50
2016,05,27,13,55,14.50
2016,05,27,13,56,14.50
2016,05,27,13,57,14.50
2016,05,27,13,58,14.40
2016,05,27,13,59,14.40
2016,05,27,14,00,14.40
2016,05,27,14,01,14.40
2016,05,27,14,02,14.40
2016,05,27,14,03,14.50
2016,05,27,14,04,14.50
2016,05,27,14,05,14.50
2016,05,27,14,06,14.60
2016,05,27,14,07,14.60
2016,05,27,14,08,14.50
2016,05,27,14,09,14.50
2016,05,27,14,10,14.60
2016,05,27,14,11,14.50
2016,05,27,14,12,14.60
2016,05,27,14,13,14.60
2016,05,27,14,14,14.60
2016,05,27,14,15,14.60
2016,05,27,14,16,14.60
2016,05,27,14,17,14.60
2016,05,27,14,18,14.60
2016,05,27,14,19,14.60
2016,05,27,14,20,14.60
2016,05,27,14,21,14.60
2016,05,27,14,22,14.50
2016,05,27,14,23,14.60
2016,05,27,14,24,14.60
2016,05,27,14,25,14.60
2016,05,27,14,26,14.60
2016,05,27,14,27,14.60
2016,05,27,14,28,14.60
2016,05,27,14,29,14.60
2016,05,27,14,30,14.60
2016,05,27,14,31,14.60
2016,05,27,14,32,14.60
2016,05,27,14,33,14.60
2016,05,27,14,34,14.60
2016,05,27,14,35,14.60
2016,05,27,14,36,14.50
2016,05,27,14,37,14.50
2016,05,27,14,38,14.50
2016,05,27,14,39,14.50
2016,05,27,14,40,14.50
2016,05,27,14,41,14.40
2016,05,27,14,42,14.40
2016,05,27,14,43,14.40
2016,05,27,14,44,14.40
2016,05,27,14,45,14.30
2016,05,27,14,46,14.30
2016,05,27,14,47,14.20
2016,05,27,14,48,14.20
2016,05,27,14,49,14.10
2016,05,27,14,50,14.10
2016,05,27,14,51,14.00
2016,05,27,14,52,14.00
2016,05,27,14,53,13.90
2016,05,27,14,54,13.90
2016,05,27,14,55,13.90
2016,05,27,14,56,13.90
2016,05,27,14,57,13.90
2016,05,27,14,58,13.90
2016,05,27,14,59,13.90
2016,05,27,15,00,13.90
2016,05,27,15,01,13.90
2016,05,27,15,02,13.90
2016,05,27,15,03,13.90
2016,05,27,15,04,13.90
2016,05,27,15,05,13.90
2016,05,27,15,06,13.90
2016,05,27,15,07,13.90
2016,05,27,15,08,13.90
2016,05,27,15,09,13.80
2016,05,27,15,10,13.80
2016,05,27,15,11,13.80
2016,05,27,15,12,13.70
2016,05,27,15,13,13.70
2016,05,27,15,14,13.70
2016,05,27,15,15,13.70
2016,05,27,15,16,13.60
2016,05,27,15,17,13.60
2016,05,27,15,18,13.50
2016,05,27,15,19,13.50
2016,05,27,15,20,13.50
2016,05,27,15,21,13.60
2016,05,27,15,22,13.60
2016,05,27,15,23,13.50
2016,05,27,15,24,13.50
2016,05,27,15,25,13.50
2016,05,27,15,26,13.50
2016,05,27,15,27,13.50
2016,05,27,15,28,13.50
2016,05,27,15,29,13.50
2016,05,27,15,30,13.40
2016,05,27,15,31,13.40
2016,05,27,15,32,13.40
2016,05,27,15,33,13.40
2016,05,27,15,34,13.50
2016,05,27,15,35,13.50
2016,05,27,15,36,13.40
2016,05,27,15,37,13.40
2016,05,27,15,38,13.40
2016,05,27,15,39,13.30
2016,05,27,15,40,13.20
2016,05,27,15,41,13.20
2016,05,27,15,42,13.10
2016,05,27,15,43,13.10
2016,05,27,15,44,13.10
2016,05,27,15,45,13.10
2016,05,27,15,46,13.10
2016,05,27,15,47,13.00
2016,05,27,15,48,13.00
2016,05,27,15,49,13.00
2016,05,27,15,50,13.00
2016,05,27,15,51,13.00
2016,05,27,15,52,13.00
2016,05,27,15,53,13.00
2016,05,27,15,54,12.90
2016,05,27,15,55,12.90
2016,05,27,15,56,12.90
2016,05,27,15,57,12.90
2016,05,27,15,58,12.90
2016,05,27,15,59,12.90
2016,05,27,16,00,12.90
2016,05,27,16,01,12.80
2016,05,27,16,02,12.80
2016,05,27,16,03,12.80
2016,05,27,16,04,12.80
2016,05,27,16,05,12.80
2016,05,27,16,06,12.70
2016,05,27,16,07,12.70
2016,05,27,16,08,12.60
2016,05,27,16,09,12.60
2016,05,27,16,10,12.60
2016,05,27,16,11,12.50
2016,05,27,16,12,12.50
2016,05,27,16,13,12.40
2016,05,27,16,14,12.40
2016,05,27,16,15,12.40
2016,05,27,16,16,12.30
2016,05,27,16,17,12.30
2016,05,27,16,18,12.30
2016,05,27,16,19,12.30
2016,05,27,16,20,12.20
2016,05,27,16,21,12.20
2016,05,27,16,22,12.20
2016,05,27,16,23,12.20
2016,05,27,16,24,12.20
2016,05,27,16,25,12.30
2016,05,27,16,26,12.30
2016,05,27,16,27,12.30
2016,05,27,16,28,12.30
2016,05,27,16,29,12.30
2016,05,27,16,30,12.30
2016,05,27,16,31,12.30
2016,05,27,16,32,12.40
2016,05,27,16,33,12.40
2016,05,27,16,34,12.40
2016,05,27,16,35,12.40
2016,05,27,16,36,12.40
2016,05,27,16,37,12.40
2016,05,27,16,38,12.40
2016,05,27,16,39,12.50
2016,05,27,16,40,12.50
2016,05,27,16,41,12.60
2016,05,27,16,42,12.60
2016,05,27,16,43,12.60
2016,05,27,16,44,12.70
2016,05,27,16,45,12.70
2016,05,27,16,46,12.70
2016,05,27,16,47,12.60
2016,05,27,16,48,12.60
2016,05,27,16,49,12.60
2016,05,27,16,50,12.60
2016,05,27,16,51,12.60
2016,05,27,16,52,12.70
2016,05,27,16,53,12.70
2016,05,27,16,54,12.70
2016,05,27,16,55,12.70
2016,05,27,16,56,12.80
2016,05,27,16,57,12.80
2016,05,27,16,58,12.80
2016,05,27,16,59,12.80
2016,05,27,17,00,12.80
2016,05,27,17,01,12.80
2016,05,27,17,02,12.80
2016,05,27,17,03,12.80
2016,05,27,17,04,12.80
2016,05,27,17,05,12.70
2016,05,27,17,06,12.70
2016,05,27,17,07,12.70
2016,05,27,17,08,12.70
2016,05,27,17,09,12.70
2016,05,27,17,10,12.60
2016,05,27,17,11,12.70
2016,05,27,17,12,12.70
2016,05,27,17,13,12.70
2016,05,27,17,14,12.60
2016,05,27,17,15,12.50
2016,05,27,17,16,12.50
2016,05,27,17,17,12.50
2016,05,27,17,18,12.40
2016,05,27,17,19,12.40
2016,05,27,17,20,12.30
2016,05,27,17,21,12.30
2016,05,27,17,22,12.30
2016,05,27,17,23,12.30
2016,05,27,17,24,12.30
2016,05,27,17,25,12.30
2016,05,27,17,26,12.30
2016,05,27,17,27,12.20
2016,05,27,17,28,12.20
2016,05,27,17,29,12.20
2016,05,27,17,30,12.20
2016,05,27,17,31,12.10
2016,05,27,17,32,12.10
2016,05,27,17,33,12.10
2016,05,27,17,34,12.10
2016,05,27,17,35,12.10
2016,05,27,17,36,12.10
2016,05,27,17,37,12.10
2016,05,27,17,38,12.10
2016,05,27,17,39,12.10
2016,05,27,17,40,12.10
2016,05,27,17,41,12.10
2016,05,27,17,42,12.20
2016,05,27,17,43,12.20
2016,05,27,17,44,12.20
2016,05,27,17,45,12.20
2016,05,27,17,46,12.20
2016,05,27,17,47,12.20
2016,05,27,17,48,12.20
2016,05,27,17,49,12.20
2016,05,27,17,50,12.10
2016,05,27,17,51,12.20
2016,05,27,17,52,12.20
2016,05,27,17,53,12.20
2016,05,27,17,54,12.20
2016,05,27,17,55,12.20
2016,05,27,17,56,12.30
2016,05,27,17,57,12.30
2016,05,27,17,58,12.30
2016,05,27,17,59,12.30
2016,05,27,18,00,12.30
2016,05,27,18,01,12.40
2016,05,27,18,02,12.40
2016,05,27,18,03,12.40
2016,05,27,18,04,12.50
2016,05,27,18,05,12.50
2016,05,27,18,06,12.50
2016,05,27,18,07,12.50
2016,05,27,18,08,12.40
2016,05,27,18,09,12.40
2016,05,27,18,10,12.40
2016,05,27,18,11,12.40
2016,05,27,18,12,12.40
2016,05,27,18,13,12.40
2016,05,27,18,14,12.40
2016,05,27,18,15,12.50
2016,05,27,18,16,12.50
2016,05,27,18,17,12.50
2016,05,27,18,18,12.50
2016,05,27,18,19,12.40
2016,05,27,18,20,12.40
2016,05,27,18,21,12.40
2016,05,27,18,22,12.40
2016,05,27,18,23,12.40
2016,05,27,18,24,12.40
2016,05,27,18,25,12.40
2016,05,27,18,26,12.30
2016,05,27,18,27,12.30
2016,05,27,18,28,12.30
2016,05,27,18,29,12.30
2016,05,27,18,30,12.30
2016,05,27,18,31,12.20
2016,05,27,18,32,12.20
2016,05,27,18,33,12.20
2016,05,27,18,34,12.20
2016,05,27,18,35,12.10
2016,05,27,18,36,12.10
2016,05,27,18,37,12.10
2016,05,27,18,38,12.10
2016,05,27,18,39,12.10
2016,05,27,18,40,12.10
2016,05,27,18,41,12.10
2016,05,27,18,42,12.10
2016,05,27,18,43,12.10
2016,05,27,18,44,12.20
2016,05,27,18,45,12.20
2016,05,27,18,46,12.10
2016,05,27,18,47,12.10
2016,05,27,18,48,12.10
2016,05,27,18,49,12.10
2016,05,27,18,50,12.00
2016,05,27,18,51,12.00
2016,05,27,18,52,12.00
2016,05,27,18,53,12.00
2016,05,27,18,54,12.00
2016,05,27,18,55,11.90
2016,05,27,18,56,12.00
2016,05,27,18,57,11.90
2016,05,27,18,58,11.90
2016,05,27,18,59,12.00
2016,05,27,19,00,12.00
2016,05,27,19,01,12.00
2016,05,27,19,02,12.00
2016,05,27,19,03,12.00
2016,05,27,19,04,12.00
2016,05,27,19,05,12.00
2016,05,27,19,06,12.00
2016,05,27,19,07,11.90
2016,05,27,19,08,11.90
2016,05,27,19,09,11.90
2016,05,27,19,10,11.90
2016,05,27,19,11,11.80
2016,05,27,19,12,11.80
2016,05,27,19,13,11.80
2016,05,27,19,14,11.70
2016,05,27,19,15,11.70
2016,05,27,19,16,11.60
2016,05,27,19,17,11.60
2016,05,27,19,18,11.60
2016,05,27,19,19,11.50
2016,05,27,19,20,11.50
2016,05,27,19,21,11.40
2016,05,27,19,22,11.40
2016,05,27,19,23,11.40
2016,05,27,19,24,11.40
2016,05,27,19,25,11.40
2016,05,27,19,26,11.40
2016,05,27,19,27,11.40
2016,05,27,19,28,11.40
2016,05,27,19,29,11.40
2016,05,27,19,30,11.40
2016,05,27,19,31,11.40
2016,05,27,19,32,11.40
2016,05,27,19,33,11.40
2016,05,27,19,34,11.30
2016,05,27,19,35,11.30
2016,05,27,19,36,11.30
2016,05,27,19,37,11.30
2016,05,27,19,38,11.30
2016,05,27,19,39,11.30
2016,05,27,19,40,11.30
2016,05,27,19,41,11.30
2016,05,27,19,42,11.30
2016,05,27,19,43,11.30
2016,05,27,19,44,11.20
2016,05,27,19,45,11.20
2016,05,27,19,46,11.20
2016,05,27,19,47,11.20
2016,05,27,19,48,11.20
2016,05,27,19,49,11.10
2016,05,27,19,50,11.10
2016,05,27,19,51,11.10
2016,05,27,19,52,11.10
2016,05,27,19,53,11.00
2016,05,27,19,54,11.00
2016,05,27,19,55,10.90
2016,05,27,19,56,10.90
2016,05,27,19,57,10.90
2016,05,27,19,58,10.90
2016,05,27,19,59,10.80